GW1546 Weather Reports


time (UTC)temp
F
wind
direction
speed
knots
gust
knots
rain 1hr
in
rain 24hr
in
rain mn
in
humidity
%
barometer
mb
20260504081814 42 191 2.6 2.6 0.00 0.00 0.00 92 987.8
20260504081216 42 180 1.7 1.7 0.00 0.00 0.00 92 988.1
20260504080626 42 186 0.9 1.7 0.00 0.00 0.00 91 987.8
20260504045417 47 173 0.9 1.7 0.00 0.00 0.00 78 988.8
20260504044831 47 199 1.7 2.6 0.00 0.00 0.00 78 988.8
20260504044221 47 187 0.9 0.9 0.00 0.00 0.00 78 988.4
20260504043642 48 167 0.0 0.9 0.00 0.00 0.00 76 988.4
20260504043048 48 122 0.9 0.9 0.00 0.00 0.00 75 988.4
20260504042431 48 97 0.0 1.7 0.00 0.00 0.00 74 988.4
20260504041228 48 99 0.0 0.9 0.00 0.00 0.00 76 988.4
20260504040644 48 113 0.0 0.9 0.00 0.00 0.00 77 988.4
20260504040029 48 173 0.9 1.7 0.00 0.00 0.00 76 988.4
20260504035428 48 184 0.9 0.9 0.00 0.00 0.00 77 988.8
20260504034214 47 184 0.9 0.9 0.00 0.00 0.00 78 988.4
20260504033612 47 188 0.9 0.9 0.00 0.00 0.00 77 988.4
20260504033036 47 192 0.9 1.7 0.00 0.00 0.00 76 988.4
20260504031244 48 203 0.9 0.9 0.00 0.00 0.00 75 988.4
20260504030018 47 193 0.9 0.9 0.00 0.00 0.00 75 988.4
20260504025413 47 188 0.9 0.9 0.00 0.00 0.00 76 988.4
20260504024824 47 200 0.9 0.9 0.00 0.00 0.00 76 988.4
20260504024220 47 217 0.0 0.9 0.00 0.00 0.00 75 988.4
20260504023633 47 208 0.9 0.9 0.00 0.00 0.00 75 988.1
20260504023027 47 202 0.9 0.9 0.00 0.00 0.00 75 988.4
20260504022437 47 184 1.7 1.7 0.00 0.00 0.00 76 988.1
20260504021834 46 202 0.0 0.9 0.00 0.00 0.00 78 988.4
20260504020620 46 202 0.9 0.9 0.00 0.00 0.00 77 988.1
20260504020020 46 201 0.9 1.7 0.00 0.00 0.00 78 988.4
20260504015443 46 202 0.9 1.7 0.00 0.00 0.00 78 988.4
20260504014826 46 199 0.0 0.9 0.00 0.00 0.00 77 988.1
20260504014244 46 200 0.9 0.9 0.00 0.00 0.00 77 988.1
20260504013650 46 198 0.0 0.9 0.00 0.00 0.00 77 988.1
20260504012412 47 207 0.9 0.9 0.00 0.00 0.00 76 987.8
20260504011837 47 213 0.0 0.9 0.00 0.00 0.00 75 988.1
20260504011214 47 202 0.0 0.9 0.00 0.00 0.00 75 987.8
20260504010635 48 202 0.0 0.9 0.00 0.00 0.00 74 987.8
20260504010049 48 202 0.0 0.0 0.00 0.00 0.00 74 987.8
20260504005438 48 201 0.0 0.9 0.00 0.00 0.00 73 987.8
20260504004247 50 233 0.0 0.9 0.00 0.00 0.00 71 987.8
20260504003614 50 210 0.0 0.9 0.00 0.00 0.00 69 987.8
20260504003040 50 181 0.0 0.9 0.00 0.00 0.00 66 987.8
20260504002436 51 92 0.9 0.9 0.00 0.00 0.00 66 987.4
20260504001818 51 205 0.0 0.9 0.00 0.00 0.00 64 987.4
20260504001219 52 230 1.7 1.7 0.00 0.00 0.00 64 987.4
20260504000654 52 125 0.9 1.7 0.00 0.00 0.00 60 987.4
20260504000042 52 213 0.0 2.6 0.00 0.00 0.00 62 987.4
20260503235412 53 215 0.0 1.7 0.00 0.00 0.00 60 987.4
20260503234815 53 229 0.0 0.9 0.00 0.00 0.00 59 987.4
20260503234236 54 244 0.0 0.9 0.00 0.00 0.00 57 987.4
20260503233627 54 238 0.0 0.9 0.00 0.00 0.00 58 987.4
20260503233035 54 291 0.9 0.9 0.00 0.00 0.00 54 987.4
20260503232447 55 232 0.0 0.9 0.00 0.00 0.00 53 987.4
20260503231818 56 257 0.0 0.9 0.00 0.00 0.00 52 987.4
20260503231252 56 253 0.9 0.9 0.00 0.00 0.00 50 987.8
20260503230636 57 224 0.9 1.7 0.00 0.00 0.00 48 987.4
20260503230041 57 284 0.0 0.9 0.00 0.00 0.00 49 987.4
20260503224223 59 285 0.9 0.9 0.00 0.00 0.00 43 987.4
20260503223614 61 232 1.7 3.5 0.00 0.00 0.00 40 987.4
20260503223014 62 294 0.0 0.9 0.00 0.00 0.00 38 987.8
20260503222422 64 291 1.7 1.7 0.00 0.00 0.00 33 987.4
20260503221820 64 237 0.9 1.7 0.00 0.00 0.00 33 987.8
20260503221224 65 321 1.7 3.5 0.00 0.00 0.00 34 987.8
20260503220654 64 210 0.9 3.5 0.00 0.00 0.00 30 987.8
20260503220044 65 38 0.0 1.7 0.00 0.00 0.00 32 987.8
20260503215439 65 42 0.0 1.7 0.00 0.00 0.00 32 987.8
20260503214810 65 286 1.7 2.6 0.00 0.00 0.00 29 987.8
20260503214224 65 0 0.0 1.7 0.00 0.00 0.00 35 987.8
20260503213647 65 147 0.0 3.5 0.00 0.00 0.00 28 987.8
20260503212440 65 93 0.0 1.7 0.00 0.00 0.00 33 987.8
20260503211827 64 182 3.5 6.1 0.00 0.00 0.00 29 987.8
20260503211227 65 244 0.9 3.5 0.00 0.00 0.00 30 988.1
20260503210647 65 179 0.9 2.6 0.00 0.00 0.00 29 987.8
20260503210017 65 115 1.7 3.5 0.00 0.00 0.00 31 987.8
20260503205430 66 292 0.0 1.7 0.00 0.00 0.00 28 988.1
20260503204242 65 14 1.7 2.6 0.00 0.00 0.00 31 988.1
20260503203038 64 254 0.9 2.6 0.00 0.00 0.00 29 988.4
20260503202422 64 275 1.7 3.5 0.00 0.00 0.00 31 988.4
20260503201816 64 215 1.7 5.2 0.00 0.00 0.00 30 988.4
20260503201234 64 197 1.7 2.6 0.00 0.00 0.00 28 988.4
20260503200625 63 260 0.9 2.6 0.00 0.00 0.00 30 988.8
20260503200026 63 182 0.0 3.5 0.00 0.00 0.00 33 988.8
20260503195409 63 213 0.0 1.7 0.00 0.00 0.00 30 988.8
20260503194821 64 266 0.9 1.7 0.00 0.00 0.00 33 989.1
20260503194241 64 138 1.7 1.7 0.00 0.00 0.00 33 989.5
20260503193621 65 335 1.7 8.7 0.00 0.00 0.00 31 989.5
20260503193043 63 211 0.9 1.7 0.00 0.00 0.00 34 989.5
20260503192436 63 51 1.7 2.6 0.00 0.00 0.00 33 989.5
20260503191842 63 201 1.7 6.1 0.00 0.00 0.00 31 989.5
20260503191249 61 63 1.7 2.6 0.00 0.00 0.00 31 989.8
20260503190636 62 234 5.2 7.0 0.00 0.00 0.00 31 990.1
20260503190052 63 247 1.7 3.5 0.00 0.00 0.00 31 990.1
20260503185423 62 196 1.7 1.7 0.00 0.00 0.00 34 990.1
20260503184846 62 320 0.9 2.6 0.00 0.00 0.00 31 990.1
20260503184216 62 259 0.9 5.2 0.00 0.00 0.00 34 990.5
20260503183031 60 33 1.7 1.7 0.00 0.00 0.00 32 990.8
20260503182446 60 220 2.6 6.1 0.00 0.00 0.00 35 990.5
20260503181853 61 286 5.2 7.0 0.00 0.00 0.00 34 990.5
20260503181236 61 248 1.7 3.5 0.00 0.00 0.00 34 990.5
20260503180651 61 263 4.3 7.8 0.00 0.00 0.00 35 990.5
20260503180026 60 160 0.9 3.5 0.00 0.00 0.00 35 990.5
20260503175417 61 237 0.0 1.7 0.00 0.00 0.00 38 990.8
20260503174820 59 85 0.9 1.7 0.00 0.00 0.00 39 991.1
20260503174213 58 165 0.9 2.6 0.00 0.00 0.00 37 991.1
20260503173627 58 289 5.2 6.1 0.00 0.00 0.00 35 991.1
20260503173035 59 308 5.2 7.8 0.00 0.00 0.00 36 991.1
20260503172413 57 263 1.7 1.7 0.00 0.00 0.00 40 991.1
20260503171814 58 168 1.7 5.2 0.00 0.00 0.00 38 991.1
20260503171254 58 268 2.6 2.6 0.00 0.00 0.00 36 991.5
20260503150630 53 172 0.9 5.2 0.00 0.00 0.00 41 992.8
20260503130620 45 39 0.0 0.0 0.00 0.00 0.00 81 993.2
20260503110645 33 239 0.9 1.7 0.00 0.00 0.00 99 992.5